Connexion S'enregistrer

Connexion à votre compte

Identifiant
Mot de passe
Maintenir la connexion active sur ce site

Créer un compte

Pour valider ce formulaire, vous devez remplir tous les champs.
Nom
Identifiant
Mot de passe
Répétez le mot de passe
Adresse e-mail
Répétez l'adresse e-mail

Veuillez saisir l'adresse e-mail associée à votre compte d'utilisateur. Votre identifiant vous sera envoyé à cette adresse.

Nous contacter

 Téléphone : +33 (0)4 79 54 41 81

Coordonnées détaillées et accès : cliquez ici

 
LFLB °C
    Ferienhaus Ostsee
[source: ADDS]
METAR
LFLB 161630Z AUTO VRB01KT 9999 -RA NSC 17/12 Q1017 NOSIG =
TAF LFLB 161100Z 1612/1712 VRB04KT CAVOK PROB30 TEMPO 1703/1707 2000 MIFG BECMG 1710/1712 34005KT
TAF
TAF LFLB 161100Z 1612/1712 VRB04KT CAVOK PROB30 TEMPO 1703/1707 2000 MIFG BECMG 1710/1712 34005KT =
SR / SS: 05:54 / 16:49 UTC (Lever/Coucher du soleil le 2018-10-16)
JSN Boot template designed by JoomlaShine.com